Panama City Beach, FL

8:37 PM CST on December 10, 2016 (GMT -0600)
Northwest Florida Beaches International

Weather History for KECP - November, 2012

Change the Weather History Date:

Saturday, November 3, 2012

  Actual Average Record
Temperature  
Mean Temperature 70 °F -  
Max Temperature 83 °F - 87 °F (2016)
Min Temperature 57 °F - 34 °F (2014)
Degree Days  
Heating Degree Days 0    
Cooling Degree Days 5    
Growing Degree Days 20 (Base 50)    
Moisture  
Dew Point 62 °F    
Average Humidity 74    
Maximum Humidity 100    
Minimum Humidity 47    
Precipitation  
Precipitation 0.00 in - 1.39 in (2010)
Month to date precipitation  
Year to date precipitation  
Sea Level Pressure  
Sea Level Pressure 30.10 in    
Wind  
Wind Speed 1 mph (SW)    
Max Wind Speed 14 mph    
Max Gust Speed 18 mph    
Visibility 4 miles    
Events Fog    
T = Trace of Precipitation, MM = Missing Value Source: NWS Daily Summary

Daily Weather History Graph

Daily Weather History Graph

Search for Another Location

Airport or City:

Trip Planner

Search our weather history database for the weather conditions in past years. The results will help you decide how hot, cold, wet, or windy it might be!

Date:

Astronomy

Nov. 03, 2012 Rise Set
Actual Time 7:59 AM EDT 6:53 PM EDT
Civil Twilight 7:34 AM EDT 7:18 PM EDT
Nautical Twilight 7:06 AM EDT 7:46 PM EDT
Astronomical Twilight 6:37 AM EDT 8:15 PM EDT
Moon 10:40 PM EDT (11/3) 11:56 AM EDT (11/3)
Length of Visible Light 11h 43m
Length of Day
10h 54m
Waning Gibbous, 80% of the Moon is Illuminated
Nov 3
Waning Gibbous
Nov 6
Last Quarter
Nov 13
New
Nov 20
First Quarter
Nov 28
Full

Hourly Weather History & Observations

Time (EDT) Temp. Heat Index Dew Point Humidity Pressure Visibility Wind Dir Wind Speed Gust Speed Precip Events Conditions
12:30 AM 62.6 °F - 60.8 °F 94% 30.05 in 0.2 mi Calm Calm - N/A Fog Fog
12:53 AM 63.0 °F - 62.1 °F 97% 30.09 in 0.2 mi Calm Calm - N/A Fog Fog
1:32 AM 64.4 °F - 62.6 °F 94% 30.05 in 0.2 mi Calm Calm - N/A Fog Fog
1:53 AM 64.0 °F - 63.0 °F 96% 30.08 in 0.2 mi Calm Calm - N/A Fog Fog
2:53 AM 63.0 °F - 62.1 °F 97% 30.08 in 0.2 mi Calm Calm - N/A Fog Fog
3:33 AM 60.8 °F - 60.8 °F 100% 30.04 in 0.2 mi Calm Calm - N/A Fog Fog
3:53 AM 60.1 °F - 59.0 °F 96% 30.08 in 0.2 mi Calm Calm - N/A Fog Fog
4:23 AM 60.8 °F - 59.0 °F 94% 30.05 in 0.2 mi Calm Calm - N/A Fog Fog
4:53 AM 59.0 °F - 57.9 °F 96% 30.09 in 0.2 mi Calm Calm - N/A Fog Fog
5:53 AM 59.0 °F - 59.0 °F 100% 30.10 in 0.2 mi Calm Calm - N/A Fog Fog
6:53 AM 59.0 °F - 57.9 °F 96% 30.12 in 0.2 mi Calm Calm - N/A Fog Fog
7:53 AM 57.9 °F - 57.0 °F 97% 30.13 in 0.2 mi Calm Calm - N/A Fog Fog
8:53 AM 59.0 °F - 57.9 °F 96% 30.15 in 0.2 mi Calm Calm - N/A Fog Fog
9:38 AM 62.6 °F - 62.6 °F 100% 30.12 in 1.0 mi Calm Calm - N/A   Mist
9:53 AM 64.9 °F - 64.0 °F 97% 30.16 in 2.0 mi Calm Calm - N/A   Mostly Cloudy
10:01 AM 66.2 °F - 64.4 °F 94% 30.12 in 3.0 mi Calm Calm - N/A   Scattered Clouds
10:53 AM 73.9 °F - 66.0 °F 76% 30.16 in 10.0 mi NW 4.6 mph - N/A   Clear
11:53 AM 79.0 °F - 64.0 °F 60% 30.15 in 10.0 mi West 3.5 mph - N/A   Clear
12:53 PM 81.0 °F 82.2 °F 63.0 °F 54% 30.14 in 10.0 mi West 3.5 mph - N/A   Scattered Clouds
1:53 PM 82.9 °F 83.3 °F 61.0 °F 47% 30.12 in 10.0 mi South 6.9 mph - N/A   Scattered Clouds
2:53 PM 82.0 °F 83.8 °F 64.9 °F 56% 30.10 in 10.0 mi South 11.5 mph - N/A   Scattered Clouds
3:53 PM 81.0 °F 82.7 °F 64.9 °F 58% 30.09 in 10.0 mi South 11.5 mph - N/A   Partly Cloudy
4:53 PM 80.1 °F 81.7 °F 64.0 °F 58% 30.08 in 10.0 mi South 9.2 mph - N/A   Clear
5:53 PM 77.0 °F - 64.0 °F 64% 30.08 in 10.0 mi SW 9.2 mph - N/A   Partly Cloudy
6:53 PM 72.0 °F - 64.0 °F 76% 30.08 in 9.0 mi SW 4.6 mph - N/A   Clear
7:53 PM 69.1 °F - 64.9 °F 87% 30.10 in 10.0 mi Calm Calm - N/A   Clear
8:53 PM 66.9 °F - 64.0 °F 90% 30.10 in 6.0 mi Calm Calm - N/A   Clear
9:53 PM 64.9 °F - 64.0 °F 97% 30.11 in 7.0 mi Calm Calm - N/A   Clear
10:53 PM 62.1 °F - 61.0 °F 96% 30.12 in 0.8 mi Calm Calm - N/A   Clear
10:57 PM 62.6 °F - 62.6 °F 100% 30.08 in 2.0 mi Calm Calm - N/A   Clear
11:03 PM 62.6 °F - 62.6 °F 100% 30.08 in 1.0 mi Calm Calm - N/A   Mist
11:10 PM 62.6 °F - 60.8 °F 94% 30.08 in 0.2 mi Calm Calm - N/A Fog Fog
11:53 PM 61.0 °F - 60.1 °F 97% 30.12 in 0.2 mi Calm Calm - N/A Fog Fog